Location: Bosdarros
(43.2167°N, 0.3667°W)
Time: 14:54:33
(UTC+00:00)

Nadezhda 4 Rocket - Pass Details

Date: 22 April 2021
Orbit: 950 x 992 km, 82.9° (Epoch: 12 May)

Event Time Altitude Azimuth Distance (km) Brightness Sun altitude
Rises 19:15:52 0° 350° (N) 3,705 7.5 -4.8°
Reaches altitude 10° 19:18:25 10° 348° (NNW) 2,748 6.9 -5.2°
Maximum altitude 19:24:41 72° 266° (W) 1,027 4.4 -6.3°
Drops below altitude 10° 19:30:50 10° 183° (S) 2,701 6.1 -7.3°
Sets 19:33:19 0° 181° (S) 3,637 6.8 -7.7°
